Change the Weather History Date:

Monday, October 28, 2013

  Actual Average Record
Temperature  
Mean Temperature -23 °F -  
Max Temperature -18 °F - - ()
Min Temperature -28 °F - - ()
Degree Days  
Heating Degree Days 88    
Moisture  
Dew Point -29 °F    
Average Humidity 75    
Maximum Humidity 79    
Minimum Humidity 60    
Precipitation  
Precipitation 0.00 in - - ()
Sea Level Pressure  
Sea Level Pressure 30.06 in    
Wind  
Wind Speed 6 mph ()    
Max Wind Speed 14 mph    
Max Gust Speed -    
T = Trace of Precipitation, MM = Missing Value Source: Averaged Metar Reports

Daily Weather History Graph

Daily Weather History Graph

Search for Another Location

Airport or City:

Trip Planner

Search our weather history database for the weather conditions in past years. The results will help you decide how hot, cold, wet, or windy it might be!

Date:

Astronomy

Dec. 31, 1969 Rise Set
Actual Time Sun does not rise Sun does not rise
Civil Twilight 9:17 AM MDT 3:55 PM MDT
Nautical Twilight 6:59 AM MDT 6:13 PM MDT
Astronomical Twilight 4:52 AM MDT 8:18 PM MDT
Moon No Moon Rise 5:06 PM MDT
Length of Visible Light 6h 38m
Length of Day
0h 00m
Waning Crescent, 33% of the Moon is Illuminated
Oct 28
Waning Crescent
Nov 3
New
Nov 9
First Quarter
Nov 17
Full
Nov 25
Last Quarter

Hourly Weather History & Observations

Time (MDT) Temp. Windchill Dew Point Humidity Pressure Visibility Wind Dir Wind Speed Gust Speed Precip Events Conditions
12:00 AM -21 °F - -26 °F 63% 30.08 in - NNE 13.8 mph - -  
12:00 AM -21.3 °F -44.8 °F -26.3 °F 77% 30.08 in - NNE 12.7 mph - N/A   Unknown
1:00 AM -21.1 °F -42.4 °F -26.1 °F 77% 30.08 in - North 10.4 mph - N/A   Unknown
2:00 AM -19.3 °F -43.2 °F -24.0 °F 79% 30.09 in - North 13.8 mph - N/A   Unknown
3:00 AM -21.3 °F -34.7 °F -26.1 °F 78% 30.09 in - North 4.6 mph - N/A   Unknown
4:00 AM -19.8 °F -35.1 °F -24.7 °F 78% 30.09 in - North 5.8 mph - N/A   Unknown
5:00 AM -22.2 °F -41.2 °F -27.2 °F 77% 30.09 in - North 8.1 mph - N/A   Unknown
6:00 AM -20 °F - -25 °F 66% 30.09 in - North 8.1 mph - -  
6:00 AM -20.0 °F -37.1 °F -24.9 °F 78% 30.09 in - North 6.9 mph - N/A   Unknown
7:00 AM -19.5 °F -30.1 °F -24.2 °F 79% 30.08 in - North 3.5 mph - N/A   Unknown
8:00 AM -22.2 °F - -27.2 °F 77% 30.09 in - WNW 2.3 mph - N/A   Unknown
9:00 AM -26.1 °F - -31.7 °F 75% 30.08 in - SE 2.3 mph - N/A   Unknown
10:00 AM -25.6 °F - -31.2 °F 75% 30.08 in - Calm Calm - N/A   Unknown
11:00 AM -25.6 °F - -31.0 °F 76% 30.08 in - WNW 2.3 mph - N/A   Unknown
12:00 PM -26.0 °F - -31.4 °F 76% 30.06 in - NE 1.2 mph - N/A   Unknown
1:00 PM -26.9 °F -38.5 °F -32.4 °F 75% 30.06 in - West 3.5 mph - N/A   Unknown
2:00 PM -27.2 °F -38.9 °F -32.8 °F 75% 30.06 in - SE 3.5 mph - N/A   Unknown
3:00 PM -25.4 °F - -31.0 °F 75% 30.05 in - Calm Calm - N/A   Unknown
4:00 PM -28.7 °F -40.6 °F -34.4 °F 74% 30.06 in - WNW 3.5 mph - N/A   Unknown
5:00 PM -25.4 °F - -31.0 °F 75% 30.05 in - South 2.3 mph - N/A   Unknown
6:00 PM -28 °F - -34 °F 60% 30.05 in - SSW 1.2 mph - -  
6:00 PM -27.8 °F - -33.5 °F 74% 30.05 in - South 1.2 mph - N/A   Unknown
7:00 PM -26.7 °F -38.3 °F -32.4 °F 74% 30.03 in - East 3.5 mph - N/A   Unknown
8:00 PM -24.3 °F -35.7 °F -29.6 °F 76% 30.01 in - East 3.5 mph - N/A   Unknown
9:00 PM -26.5 °F - -32.3 °F 74% 30.01 in - Calm Calm - N/A   Unknown
10:00 PM -21.1 °F -36.6 °F -26.1 °F 77% 30.00 in - SE 5.8 mph - N/A   Unknown
11:00 PM -21.1 °F - -26.1 °F 77% 29.99 in - Calm Calm - N/A   Unknown